DW7098 Weather Reports


Display with metric or nautical units.
time (UTC)temp
F
wind
direction
speed
MPH
gust
MPH
rain 1hr
in
rain 24hr
in
rain mn
in
humidity
%
barometer
mb
20260503233045 80 287 1.0 6.0 0.00 0.00 0.00
20260503230111 83 304 1.0 4.0 0.00 0.00 0.00
20260503223051 85 295 1.0 4.0 0.00 0.00 0.00
20260503220101 84 233 3.0 6.0 0.00 0.00 0.00
20260503213042 85 298 0.0 5.0 0.00 0.00 0.00
20260503210052 84 107 3.0 6.0 0.00 0.00 0.00
20260503200101 81 61 3.0 6.0 0.00 0.00 0.00
20260503193044 79 294 2.0 5.0 0.00 0.00 0.00
20260503190054 77 114 3.0 8.0 0.00 0.00 0.00
20260503180106 74 83 3.0 6.0 0.00 0.00 0.00
20260503173046 71 112 3.0 8.0 0.00 0.00 0.00
20260503150111 62 72 2.0 4.0 0.00 0.00 0.00
20260503053033 54 222 0.0 0.0 0.00 0.00 0.00
20260503043043 54 241 0.0 3.0 0.00 0.00 0.00
20260503040054 54 257 1.0 4.0 0.00 0.00 0.00
20260503033033 55 237 0.0 5.0 0.00 0.00 0.00
20260503023053 57 206 1.0 5.0 0.00 0.00 0.00
20260503013041 61 217 1.0 7.0 0.00 0.00 0.00
20260503010053 63 225 1.0 7.0 0.00 0.00 0.00
20260503003035 66 225 1.0 5.0 0.00 0.00 0.00
20260503000105 68 266 0.0 6.0 0.00 0.00 0.00